Location: Newark
(48.6767°N, 1.3256°E)
Time: 08:04:04
(UTC+00:00)

ISS - Pass Details

Date: 24 November 2019
Orbit: 411 x 421 km, 51.6° (Epoch: 11 December)

Event Time Altitude Azimuth Distance (km) Brightness Sun altitude
Rises 17:22:38 0° 212° (SSW) 2,344 0.9 -12.3°
Reaches altitude 10° 17:24:57 10° 198° (SSW) 1,488 -0.5 -12.7°
Maximum altitude 17:27:43 24° 142° (SE) 910 -2.3 -13.1°
Enters shadow 17:28:56 20° 109° (ESE) 1,050 -2.2 -13.3°
